Wetterdaten: aktuell Dienstag, 25.02.2020 22:51
Datum Zeit Temp. 2m 5cm . Boden Feuchte A. Luftdruck Regen Wind Richtung Richtung Sonnenschein Helligkeit Solar Taupunkt Windchill
25.02.2020 22:51 4,8 C 8,6 C 78 % 1032,1 hPa 0,0 l/m 20,4 km/h (4 Bft) S-SW67.5 205 0 min 0 lux 0 W/m 1,3 C -3,6 C
25.02.2020 22:46 4,8 C 8,6 C 78 % 1032,1 hPa 0,0 l/m 10,0 km/h (2 Bft) S 170 0 min 0 lux 0 W/m 1,3 C 1,9 C
25.02.2020 22:41 4,6 C 8,6 C 78 % 1032,1 hPa 0,0 l/m 15,5 km/h (3 Bft) S45 180 0 min 0 lux 0 W/m 1,1 C -1,7 C
25.02.2020 22:36 4,6 C 8,6 C 78 % 1032,1 hPa 0,0 l/m 14,0 km/h (3 Bft) S45 175 0 min 0 lux 0 W/m 1,1 C -0,9 C
25.02.2020 22:31 4,5 C 8,6 C 78 % 1032,1 hPa 0,0 l/m 14,6 km/h (3 Bft) S45 185 0 min 0 lux 0 W/m 1,0 C -1,3 C
25.02.2020 22:26 4,2 C 8,6 C 78 % 1032,2 hPa 0,0 l/m 9,5 km/h (2 Bft) S22.5 175 0 min 0 lux 0 W/m 0,7 C 1,6 C
25.02.2020 22:21 4,1 C 8,6 C 78 % 1032,2 hPa 0,0 l/m 9,5 km/h (2 Bft) S22.5 175 0 min 0 lux 0 W/m 0,6 C 1,4 C
25.02.2020 22:16 3,8 C 8,6 C 78 % 1032,2 hPa 0,0 l/m 8,0 km/h (2 Bft) S45 180 0 min 0 lux 0 W/m 0,3 C 2,3 C
25.02.2020 22:11 3,8 C 8,6 C 78 % 1032,2 hPa 0,0 l/m 13,6 km/h (3 Bft) S45 185 0 min 0 lux 0 W/m 0,3 C -1,6 C
25.02.2020 22:06 3,8 C 8,6 C 78 % 1032,2 hPa 0,0 l/m 2,6 km/h (1 Bft) S22.5 175 0 min 0 lux 0 W/m 0,3 C 3,8 C
25.02.2020 22:01 3,8 C 8,6 C 78 % 1032,2 hPa 0,0 l/m 1,3 km/h (1 Bft) SW45 225 0 min 0 lux 0 W/m 0,3 C 3,8 C
25.02.2020 21:56 3,9 C 8,6 C 78 % 1032,2 hPa 0,0 l/m 1,1 km/h (1 Bft) W 265 0 min 0 lux 0 W/m 0,4 C 3,9 C
25.02.2020 21:52 4,0 C 8,6 C 78 % 1032,2 hPa 0,0 l/m 11,0 km/h (2 Bft) W-SW22.5 250 0 min 0 lux 0 W/m 0,5 C 0,3 C
25.02.2020 21:46 4,0 C 8,6 C 78 % 1032,2 hPa 0,0 l/m 1,6 km/h (1 Bft) W-SW 245 0 min 0 lux 0 W/m 0,5 C 4,0 C
25.02.2020 21:41 4,2 C 8,6 C 78 % 1032,2 hPa 0,0 l/m 7,7 km/h (2 Bft) W-SW45 250 0 min 0 lux 0 W/m 0,7 C 3,0 C
25.02.2020 21:36 4,3 C 8,6 C 78 % 1032,1 hPa 0,0 l/m 7,1 km/h (2 Bft) SW22.5 235 0 min 0 lux 0 W/m 0,8 C 3,7 C
25.02.2020 21:31 4,4 C 8,6 C 78 % 1032,1 hPa 0,0 l/m 12,1 km/h (2 Bft) W45 265 0 min 0 lux 0 W/m 0,9 C 0,0 C
25.02.2020 21:27 4,5 C 8,6 C 78 % 1032,1 hPa 0,0 l/m 18,1 km/h (3 Bft) W-SW22.5 245 0 min 0 lux 0 W/m 1,0 C -3,0 C
25.02.2020 21:21 4,6 C 8,6 C 78 % 1032,1 hPa 0,0 l/m 15,6 km/h (3 Bft) W-SW45 245 0 min 0 lux 0 W/m 1,1 C -1,7 C
_ Min-Zeit 22:01 00:01 00:01 13:01 - 05:47 - - - - - 22:01 17:36
Minimum _ 3,8 C 8,6 C 78 % 1031,2 hPa - 0,8 km/h (0 Bft) - - - - - 0,3 C -5,7 C
_ Max-Zeit 13:01 00:01 00:01 22:01 01:01 13:46 - - 09:21 12:56 12:56 13:01 05:47
Maximum _ 10,4 C 8,6 C 78 % 1032,2 hPa 0,3 l/m 51,2 km/h
W (7 Bft)
- - 5 min 69,9 klux 323 W/m 6,7 C 8,6 C
Durchschnitt _ 7,8 C 8,6 C 78 % 1031,6 hPa #1,8 l/m 25,4 km/h (4 Bft) W-SW - #1:04 h 6,37 klux 57 W/m 4,2 C -0,5 C
copyright (c) - www.lichtentanne-wetter.de